Flag for Norway Weather past 2 weeks in Mysen, Norway

Now
63 °F

Passing clouds.


Feels Like: 63 °F
Forecast: 65 / 83 °F
Wind: 1 mph from Northeast

Location: Rygge

Current Time: Jul 23, 2014 at 3:43:47 AM

Latest Report: Jul 23, 2014 at 3:00 AM


Visibility: 28 mi

Pressure: 30.30 "Hg

Humidity: 82%

Dew point: 57 °F

Location of MysenLocation

Historic Weather in Mysen — Graph

°F

Mysen temperature yesterday

Maximum temperature yesterday: 87 °F (at 4:00 PM)
Minimum temperature yesterday: 62 °F (at 5:00 AM)
Average temperature yesterday: 76 °F

Past Weeks' High & Low Weather Summary

 TemperatureHumidityPressure
High87 °F (Jul 22, 4:00 PM)97% (Jul 18, 4:00 AM)30.29 "Hg (Jul 18, 4:00 AM)
Low55 °F (Jul 19, 5:00 AM)32% (Jul 21, 5:00 PM)29.96 "Hg (Jul 16, 11:00 AM)
Average70 °F64%30.11 "Hg
* Reported Jul 16 11:00 AM — Jul 23 2:00 AM, Mysen, Weather by CustomWeather, © 2014

Note: Actual official high and low records may vary slightly from our data, if they occured in-between our weather recording intervals... More about our weather records

Advertising

Mysen weather history for previous 24 hours

 ConditionsComfort  
Time TempWeatherWind HumidityBarometerVisibility
2:00 AM
Jul 23
66 °FClear.No wind73%30.29 "Hg25 mi
6:00 PM
Jul 22
84 °FSunny.5 mph38%30.23 "Hg22 mi
5:00 PM82 °FOvercast.5 mph41%30.24 "Hg22 mi
4:00 PM87 °FPassing clouds.5 mph33%30.23 "Hg22 mi
3:00 PM86 °FSunny.3 mph35%30.24 "Hg19 mi
2:00 PM82 °FOvercast.5 mph37%30.26 "Hg17 mi
1:00 PM84 °FPartly sunny.5 mph36%30.26 "Hg22 mi
12:00 PM81 °FOvercast.5 mph42%30.26 "Hg25 mi
11:00 AM81 °FPassing clouds.2 mph39%30.26 "Hg25 mi
10:00 AM82 °FSunny.1 mph38%30.26 "Hg22 mi
9:00 AM80 °FSunny.1 mph49%30.25 "Hg28 mi
8:00 AM77 °FSunny.1 mph54%30.25 "Hg25 mi
7:00 AM71 °FSunny.1 mph64%30.24 "Hg25 mi
6:00 AM66 °FSunny.1 mph74%30.23 "Hg22 mi
5:00 AM62 °FOvercast.2 mph81%30.22 "Hg28 mi
3:00 AM62 °FClear.1 mph80%30.21 "Hg28 mi
Weather by CustomWeather, © 2014

See weather overviewHow to use our weather pages